Location: Haliburton Scout Reserve
(45.0900°N, 78.3200°W)
Time: 02:11:41
(UTC-04:00)

DIWATA 2B (PO-101) - Pass Details

Date: 25 May 2022
Orbit: 585 x 597 km, 98.0° (Epoch: 27 June)

Event Time Altitude Azimuth Distance (km) Brightness Sun altitude
Exits shadow 03:43:40 26° 232° (SW) 1,155 ? -15.3°
Maximum altitude 03:44:49 31° 263° (W) 1,041 ? -15.2°
Drops below altitude 10° 03:48:33 10° 327° (NNW) 1,923 ? -14.8°
Sets 03:50:56 0° 338° (NNW) 2,831 ? -14.5°
